User: anonymous   Login
Location: Unspecified
(0.0000°N, 0.0000°E)
Time: 12:59:35
(UTC+00:00)
Language:

deb S5M - Orbit

View from above orbital plane
View from above orbital plane
View from above satellite
View from above satellite

Ground track
Ground track

The orbit data is extracted from the following two-line orbital elements,

1 25225U 87068BC  24169.94791793  .00005423  00000-0  24641-2 0  9999
2 25225  82.5020 336.7555 0057922 284.3541 231.3001 14.20776287340169
Epoch (UTC): 17 June 2024 22:45:00
Eccentricity: 0.0057922
inclination: 82.5020°
perigee height: 781 km
apogee height: 864 km
right ascension of ascending node: 336.7555°
argument of perigee: 284.3541°
revolutions per day: 14.20776287
mean anomaly at epoch: 231.3001°
orbit number at epoch: 34016

The dashed part of the orbit path shows where the satellite is in the earth's shadow,  

DLR